Time,TemperatureF,DewpointF,PressureIn,WindDirection,WindDirectionDegrees,WindSpeedMPH,WindSpeedGustMPH,Humidity,HourlyPrecipIn,Conditions,Clouds,dailyrainin,SoftwareType,DateUTC
2013-02-04 00:02:00,33.3,30.4,28.07,South,180,15.0,23.0,89,-99.99,,,-99.99,meteohub,2013-02-03 23:02:00,
2013-02-04 00:17:00,32.9,30.4,28.05,WSW,248,8.0,15.0,90,-99.99,,,-99.99,meteohub,2013-02-03 23:17:00,
2013-02-04 00:32:00,32.9,30.4,28.04,SW,225,13.0,28.0,90,-99.99,,,-99.99,meteohub,2013-02-03 23:32:00,
2013-02-04 00:47:00,32.9,30.4,28.04,WSW,248,15.0,28.0,90,-99.99,,,-99.99,meteohub,2013-02-03 23:47:00,
2013-02-04 01:02:00,32.9,30.6,28.04,South,180,15.0,19.0,91,-99.99,,,-99.99,meteohub,2013-02-04 00:02:00,
2013-02-04 01:17:00,32.7,30.4,28.04,SW,225,10.0,17.0,91,-99.99,,,-99.99,meteohub,2013-02-04 00:17:00,
2013-02-04 07:02:00,33.4,30.2,28.06,SW,225,9.0,14.0,88,-99.99,,,-99.99,meteohub,2013-02-04 06:02:00,
2013-02-04 07:17:00,33.6,30.7,28.07,West,270,9.0,15.0,89,-99.99,,,-99.99,meteohub,2013-02-04 06:17:00,
2013-02-04 07:32:00,34.0,31.1,28.07,SW,225,11.0,12.0,89,-99.99,,,-99.99,meteohub,2013-02-04 06:32:00,
2013-02-04 07:47:00,34.0,31.1,28.07,WSW,248,11.0,11.0,89,-99.99,,,-99.99,meteohub,2013-02-04 06:47:00,
2013-02-04 08:02:00,34.0,31.1,28.08,SW,225,7.0,11.0,89,-99.99,,,-99.99,meteohub,2013-02-04 07:02:00,
2013-02-04 08:17:00,34.0,31.3,28.08,SW,225,8.0,10.0,90,-99.99,,,-99.99,meteohub,2013-02-04 07:17:00,
2013-02-04 08:32:00,34.0,31.3,28.08,South,180,6.0,11.0,90,-99.99,,,-99.99,meteohub,2013-02-04 07:32:00,
2013-02-04 08:47:00,34.3,31.6,28.08,WSW,248,11.0,15.0,90,-99.99,,,-99.99,meteohub,2013-02-04 07:47:00,
2013-02-04 09:02:00,34.5,31.8,28.08,WSW,248,6.0,14.0,90,-99.99,,,-99.99,meteohub,2013-02-04 08:02:00,
2013-02-04 09:17:00,34.9,32.0,28.07,WSW,248,7.0,16.0,89,-99.99,,,-99.99,meteohub,2013-02-04 08:17:00,
2013-02-04 09:32:00,34.9,32.0,28.08,South,180,11.0,13.0,89,-99.99,,,-99.99,meteohub,2013-02-04 08:32:00,
2013-02-04 09:47:00,35.1,31.8,28.08,SW,225,10.0,12.0,88,-99.99,,,-99.99,meteohub,2013-02-04 08:47:00,
2013-02-04 10:02:00,35.8,32.5,28.07,SSW,203,6.0,16.0,88,-99.99,,,-99.99,meteohub,2013-02-04 09:02:00,
2013-02-04 10:17:00,36.1,32.7,28.08,WSW,248,10.0,21.0,87,-99.99,,,-99.99,meteohub,2013-02-04 09:17:00,
2013-02-04 10:32:00,36.1,32.4,28.08,West,270,6.0,15.0,86,-99.99,,,-99.99,meteohub,2013-02-04 09:32:00,
2013-02-04 10:47:00,36.3,32.5,28.08,SW,225,14.0,16.0,86,-99.99,,,-99.99,meteohub,2013-02-04 09:47:00,
2013-02-04 11:02:00,37.0,32.9,28.08,SW,225,9.0,16.0,85,-99.99,,,-99.99,meteohub,2013-02-04 10:02:00,
2013-02-04 11:17:00,37.4,33.1,28.08,WSW,248,13.0,18.0,84,-99.99,,,-99.99,meteohub,2013-02-04 10:17:00,
2013-02-04 11:32:00,37.8,33.4,28.07,SW,225,12.0,13.0,84,-99.99,,,-99.99,meteohub,2013-02-04 10:32:00,
2013-02-04 11:47:00,37.8,33.4,28.07,SW,225,10.0,12.0,84,-99.99,,,-99.99,meteohub,2013-02-04 10:47:00,
2013-02-04 12:02:00,37.0,32.9,28.07,South,180,11.0,16.0,85,-99.99,,,-99.99,meteohub,2013-02-04 11:02:00,
2013-02-04 12:17:00,36.9,33.1,28.07,SW,225,14.0,16.0,86,-99.99,,,-99.99,meteohub,2013-02-04 11:17:00,
2013-02-04 12:32:00,36.9,33.4,28.05,SW,225,15.0,15.0,87,-99.99,,,-99.99,meteohub,2013-02-04 11:32:00,
2013-02-04 12:47:00,36.7,33.3,28.05,SW,225,16.0,16.0,87,-99.99,,,-99.99,meteohub,2013-02-04 11:47:00,
2013-02-04 13:02:00,36.7,33.3,28.05,WSW,248,14.0,16.0,87,-99.99,,,-99.99,meteohub,2013-02-04 12:02:00,
2013-02-04 13:17:00,36.9,33.6,28.04,SW,225,13.0,18.0,88,-99.99,,,-99.99,meteohub,2013-02-04 12:17:00,
2013-02-04 13:32:00,36.9,33.6,28.04,SW,225,13.0,15.0,88,-99.99,,,-99.99,meteohub,2013-02-04 12:32:00,
2013-02-04 13:47:00,36.9,33.4,28.04,SW,225,16.0,20.0,87,-99.99,,,-99.99,meteohub,2013-02-04 12:47:00,
2013-02-04 14:02:00,37.0,33.6,28.02,East,90,22.0,29.0,87,-99.99,,,-99.99,meteohub,2013-02-04 13:02:00,
2013-02-04 14:17:00,37.0,33.8,28.02,SW,225,19.0,22.0,88,-99.99,,,-99.99,meteohub,2013-02-04 13:17:00,
2013-02-04 14:32:00,37.0,33.8,28.03,SW,225,17.0,20.0,88,-99.99,,,-99.99,meteohub,2013-02-04 13:32:00,
2013-02-04 14:47:00,37.2,34.0,28.03,SW,225,17.0,25.0,88,-99.99,,,-99.99,meteohub,2013-02-04 13:47:00,
2013-02-04 15:02:00,37.4,34.2,28.02,WNW,293,12.0,18.0,88,-99.99,,,-99.99,meteohub,2013-02-04 14:02:00,
2013-02-04 15:17:00,37.6,34.3,28.02,SW,225,20.0,34.0,88,-99.99,,,-99.99,meteohub,2013-02-04 14:17:00,
2013-02-04 15:32:00,37.6,34.3,28.03,SW,225,21.0,22.0,88,-99.99,,,-99.99,meteohub,2013-02-04 14:32:00,
2013-02-04 15:47:00,37.4,34.2,28.03,WSW,248,17.0,26.0,88,-99.99,,,-99.99,meteohub,2013-02-04 14:47:00,
2013-02-04 16:02:00,37.6,34.3,28.03,SSW,203,19.0,19.0,88,-99.99,,,-99.99,meteohub,2013-02-04 15:02:00,
2013-02-04 16:17:00,37.8,34.5,28.04,WSW,248,22.0,23.0,88,-99.99,,,-99.99,meteohub,2013-02-04 15:17:00,
2013-02-04 16:32:00,37.8,34.5,28.04,WSW,248,16.0,22.0,88,-99.99,,,-99.99,meteohub,2013-02-04 15:32:00,
2013-02-04 16:47:00,37.8,34.5,28.04,SW,225,16.0,22.0,88,-99.99,,,-99.99,meteohub,2013-02-04 15:47:00,
2013-02-04 17:02:00,37.9,34.7,28.04,South,180,15.0,24.0,88,-99.99,,,-99.99,meteohub,2013-02-04 16:02:00,
2013-02-04 17:17:00,37.8,34.9,28.05,West,270,27.0,27.0,89,-99.99,,,-99.99,meteohub,2013-02-04 16:17:00,
2013-02-04 17:32:00,37.8,34.9,28.06,SW,225,14.0,27.0,89,-99.99,,,-99.99,meteohub,2013-02-04 16:32:00,
2013-02-04 17:47:00,37.8,34.9,28.06,SW,225,16.0,21.0,89,-99.99,,,-99.99,meteohub,2013-02-04 16:47:00,
2013-02-04 18:02:00,37.8,34.9,28.07,WSW,248,14.0,20.0,89,-99.99,,,-99.99,meteohub,2013-02-04 17:02:00,
2013-02-04 18:17:00,37.8,34.9,28.08,SW,225,13.0,18.0,89,-99.99,,,-99.99,meteohub,2013-02-04 17:17:00,
2013-02-04 18:32:00,37.9,35.1,28.09,WSW,248,14.0,22.0,89,-99.99,,,-99.99,meteohub,2013-02-04 17:32:00,
2013-02-04 18:47:00,37.9,35.2,28.09,NNE,23,11.0,16.0,90,-99.99,,,-99.99,meteohub,2013-02-04 17:47:00,
2013-02-04 19:02:00,38.3,35.6,28.09,SW,225,11.0,16.0,90,-99.99,,,-99.99,meteohub,2013-02-04 18:02:00,
2013-02-04 19:17:00,38.5,35.8,28.08,SW,225,15.0,17.0,90,-99.99,,,-99.99,meteohub,2013-02-04 18:17:00,
2013-02-04 19:32:00,38.7,36.0,28.09,North,0,21.0,21.0,90,-99.99,,,-99.99,meteohub,2013-02-04 18:32:00,
2013-02-04 19:47:00,38.7,36.0,28.09,WSW,248,14.0,21.0,90,-99.99,,,-99.99,meteohub,2013-02-04 18:47:00,
2013-02-04 20:02:00,38.8,36.1,28.09,WSW,248,10.0,14.0,90,-99.99,,,-99.99,meteohub,2013-02-04 19:02:00,
2013-02-04 20:17:00,38.8,36.1,28.08,SW,225,12.0,20.0,90,-99.99,,,-99.99,meteohub,2013-02-04 19:17:00,
2013-02-04 20:32:00,39.0,36.3,28.11,WSW,248,8.0,15.0,90,-99.99,,,-99.99,meteohub,2013-02-04 19:32:00,
2013-02-04 20:47:00,38.8,36.1,28.11,South,180,10.0,16.0,90,-99.99,,,-99.99,meteohub,2013-02-04 19:47:00,
2013-02-04 21:02:00,39.0,36.3,28.11,South,180,12.0,17.0,90,-99.99,,,-99.99,meteohub,2013-02-04 20:02:00,
2013-02-04 21:17:00,39.0,36.3,28.11,West,270,13.0,15.0,90,-99.99,,,-99.99,meteohub,2013-02-04 20:17:00,
2013-02-04 21:32:00,38.8,36.1,28.11,WSW,248,12.0,15.0,90,-99.99,,,-99.99,meteohub,2013-02-04 20:32:00,
2013-02-04 21:47:00,39.0,36.3,28.11,NW,315,9.0,12.0,90,-99.99,,,-99.99,meteohub,2013-02-04 20:47:00,
2013-02-04 22:02:00,39.0,36.3,28.11,SW,225,7.0,13.0,90,-99.99,,,-99.99,meteohub,2013-02-04 21:02:00,
2013-02-04 22:17:00,38.7,36.0,28.11,West,270,7.0,12.0,90,-99.99,,,-99.99,meteohub,2013-02-04 21:17:00,
2013-02-04 22:32:00,38.5,36.1,28.11,West,270,2.0,10.0,91,-99.99,,,-99.99,meteohub,2013-02-04 21:32:00,
2013-02-04 22:47:00,38.5,36.1,28.11,WSW,248,11.0,11.0,91,-99.99,,,-99.99,meteohub,2013-02-04 21:47:00,
2013-02-04 23:02:00,38.5,36.1,28.11,SW,225,9.0,11.0,91,-99.99,,,-99.99,meteohub,2013-02-04 22:02:00,
2013-02-04 23:17:00,38.7,36.3,28.12,WSW,248,13.0,13.0,91,-99.99,,,-99.99,meteohub,2013-02-04 22:17:00,
2013-02-04 23:32:00,39.0,36.7,28.11,SW,225,12.0,14.0,91,-99.99,,,-99.99,meteohub,2013-02-04 22:32:00,
2013-02-04 23:47:00,39.0,36.3,28.11,WSW,248,9.0,15.0,90,-99.99,,,-99.99,meteohub,2013-02-04 22:47:00,